When you browse on this site, cookies collect data to enhance your experience and personalize the content and advertising you see.
Visit our Privacy Policy to learn more. By continuing to use the site, you agree to this use of cookies and data.
  • In Czech Republic
  • List of Countries
  • For 7 days
  • Water Temperature
  • Satellite Maps
  • Weather Map
  • Weather Widgets
  • user-avatar
    Login

    Hourly Weather Dorofeevo

    Today, 23 February, Saturday

    Time Temperature Precipitation Wind Pressure Humidity
    00:00 -14°C° 0 mm 4 mps 758 mmHg 86%
    01:00 -14°C° 0 mm 4 mps 758 mmHg 86%
    02:00 -15°C° 0 mm 4 mps 759 mmHg 87%
    03:00 -15°C° 0 mm 3 mps 760 mmHg 88%
    04:00 -15°C° 0 mm 3 mps 760 mmHg 89%
    05:00 -16°C° 0 mm 3 mps 761 mmHg 89%
    06:00 -16°C° 0 mm 3 mps 761 mmHg 90%
    07:00 -16°C° 0 mm 3 mps 762 mmHg 90%
    08:00 -15°C° 0 mm 3 mps 762 mmHg 90%
    09:00 -15°C° 0 mm 3 mps 763 mmHg 90%
    10:00 -14°C° 0 mm 3 mps 763 mmHg 87%
    11:00 -13°C° 0 mm 3 mps 763 mmHg 85%
    12:00 -10°C° 0 mm 3 mps 763 mmHg 82%
    13:00 -9°C° 0 mm 3 mps 763 mmHg 81%
    14:00 -8°C° 0 mm 2 mps 763 mmHg 80%
    15:00 -7°C° 0 mm 2 mps 763 mmHg 79%
    16:00 -8°C° 0 mm 2 mps 762 mmHg 83%
    17:00 -9°C° 0 mm 2 mps 762 mmHg 88%
    18:00 -10°C° 0 mm 2 mps 762 mmHg 92%
    19:00 -12°C° 0 mm 2 mps 762 mmHg 92%
    20:00 -12°C° 0 mm 2 mps 762 mmHg 93%
    21:00 -13°C° 0 mm 2 mps 761 mmHg 93%
    22:00 -13°C° 0 mm 2 mps 761 mmHg 92%
    23:00 -13°C° 0 mm 2 mps 761 mmHg 91%

    Tomorrow, 24 February, Sunday

    Time Temperature Precipitation Wind Pressure Humidity
    00:00 -13°C° 0 mm 2 mps 760 mmHg 90%
    01:00 -13°C° 0 mm 3 mps 760 mmHg 91%
    02:00 -13°C° 0 mm 3 mps 760 mmHg 92%
    03:00 -12°C° 0 mm 3 mps 759 mmHg 93%
    04:00 -12°C° 0 mm 3 mps 759 mmHg 93%
    05:00 -10°C° 0 mm 3 mps 759 mmHg 94%
    06:00 -10°C° 0 mm 3 mps 758 mmHg 94%
    07:00 -9°C° 0 mm 3 mps 758 mmHg 94%
    08:00 -9°C° 0 mm 3 mps 758 mmHg 93%
    09:00 -8°C° 0 mm 3 mps 758 mmHg 93%
    10:00 -7°C° 0 mm 3 mps 758 mmHg 92%
    11:00 -6°C° 0 mm 3 mps 758 mmHg 91%
    12:00 -4°C° 0 mm 2 mps 758 mmHg 90%
    13:00 -4°C° 0 mm 2 mps 757 mmHg 90%
    14:00 -3°C° 0 mm 2 mps 757 mmHg 90%
    15:00 -2°C° 0 mm 2 mps 757 mmHg 90%
    16:00 -2°C° 0 mm 2 mps 757 mmHg 92%
    17:00 -3°C° 0 mm 2 mps 757 mmHg 93%
    18:00 -3°C° 0 mm 2 mps 756 mmHg 95%
    19:00 -2°C° 0.1 mm 2 mps 756 mmHg 95%
    20:00 -2°C° 0.1 mm 2 mps 756 mmHg 96%
    21:00 -2°C° 0.1 mm 2 mps 756 mmHg 96%
    22:00 -1°C° 0.1 mm 3 mps 755 mmHg 96%
    23:00 -1°C° 0.1 mm 3 mps 755 mmHg 96%

    Day after tomorrow, 25 February, Monday

    Time Temperature Precipitation Wind Pressure Humidity
    00:00 0°C° 0.1 mm 3 mps 754 mmHg 96%
    01:00 0°C° 0 mm 3 mps 753 mmHg 95%
    02:00 0°C° 0 mm 3 mps 753 mmHg 95%
    03:00 0°C° 0 mm 3 mps 752 mmHg 95%
    04:00 -1°C° 0.3 mm 4 mps 751 mmHg 94%
    05:00 -1°C° 0.3 mm 4 mps 750 mmHg 93%
    06:00 -1°C° 0.3 mm 5 mps 749 mmHg 92%
    07:00 -1°C° 0.2 mm 5 mps 748 mmHg 92%
    08:00 -1°C° 0.2 mm 4 mps 748 mmHg 92%
    09:00 -1°C° 0.2 mm 4 mps 747 mmHg 93%
    10:00 -1°C° 0.1 mm 4 mps 747 mmHg 93%
    11:00 0°C° 0.1 mm 4 mps 746 mmHg 93%
    12:00 0°C° 0.1 mm 4 mps 746 mmHg 93%
    13:00 0°C° 0.1 mm 4 mps 746 mmHg 92%
    14:00 0°C° 0.1 mm 4 mps 745 mmHg 91%
    15:00 -1°C° 0.1 mm 4 mps 745 mmHg 90%
    16:00 -1°C° 0.2 mm 4 mps 745 mmHg 90%
    17:00 -1°C° 0.2 mm 4 mps 744 mmHg 90%
    18:00 -2°C° 0.2 mm 4 mps 744 mmHg 90%
    19:00 -2°C° 0.1 mm 4 mps 744 mmHg 90%
    20:00 -2°C° 0.1 mm 4 mps 744 mmHg 91%
    21:00 -1°C° 0.1 mm 3 mps 743 mmHg 92%
    22:00 -2°C° 0.1 mm 3 mps 743 mmHg 92%
    23:00 -2°C° 0.1 mm 3 mps 743 mmHg 92%

    26 February, Tuesday

    Time Temperature Precipitation Wind Pressure Humidity
    00:00 -2°C° 0.1 mm 3 mps 742 mmHg 93%
    01:00 -2°C° 0 mm 3 mps 742 mmHg 93%
    02:00 -4°C° 0 mm 3 mps 742 mmHg 94%
    03:00 -4°C° 0 mm 2 mps 742 mmHg 94%
    04:00 -4°C° 0.3 mm 3 mps 741 mmHg 94%
    05:00 -2°C° 0.3 mm 3 mps 741 mmHg 93%
    06:00 -2°C° 0.3 mm 4 mps 740 mmHg 92%
    07:00 -2°C° 0.4 mm 4 mps 740 mmHg 92%
    08:00 -2°C° 0.4 mm 5 mps 740 mmHg 91%
    09:00 -2°C° 0.4 mm 5 mps 739 mmHg 90%
    10:00 -2°C° 0.4 mm 5 mps 739 mmHg 89%
    11:00 -2°C° 0.4 mm 5 mps 738 mmHg 89%
    12:00 -2°C° 0.4 mm 5 mps 738 mmHg 88%
    13:00 -2°C° 0.3 mm 5 mps 738 mmHg 88%
    14:00 -2°C° 0.3 mm 5 mps 738 mmHg 88%
    15:00 -2°C° 0.3 mm 5 mps 738 mmHg 88%
    16:00 -2°C° 0.2 mm 4 mps 738 mmHg 88%
    17:00 -2°C° 0.2 mm 4 mps 738 mmHg 89%
    18:00 -2°C° 0.2 mm 4 mps 738 mmHg 89%
    19:00 -2°C° 0.1 mm 4 mps 739 mmHg 89%
    20:00 -2°C° 0.1 mm 4 mps 739 mmHg 89%
    21:00 -2°C° 0.1 mm 4 mps 739 mmHg 89%
    22:00 -2°C° 0.1 mm 4 mps 740 mmHg 90%
    23:00 -2°C° 0.1 mm 4 mps 740 mmHg 90%

    27 February, Wednesday

    Time Temperature Precipitation Wind Pressure Humidity
    00:00 -1°C° 0.1 mm 4 mps 741 mmHg 90%
    01:00 -2°C° 0.1 mm 4 mps 741 mmHg 91%
    02:00 -2°C° 0.1 mm 4 mps 742 mmHg 91%
    03:00 -2°C° 0.1 mm 3 mps 742 mmHg 92%
    04:00 -2°C° 0.1 mm 3 mps 743 mmHg 93%
    05:00 -4°C° 0.1 mm 3 mps 743 mmHg 94%
    06:00 -3°C° 0.1 mm 2 mps 743 mmHg 95%
    07:00 -4°C° 0.2 mm 3 mps 744 mmHg 94%
    08:00 -2°C° 0.2 mm 3 mps 744 mmHg 93%
    09:00 -2°C° 0.2 mm 3 mps 744 mmHg 93%
    10:00 -2°C° 0.2 mm 3 mps 744 mmHg 92%
    11:00 -2°C° 0.2 mm 3 mps 744 mmHg 91%
    12:00 -3°C° 0.2 mm 4 mps 743 mmHg 90%
    13:00 -2°C° 0.1 mm 3 mps 743 mmHg 89%
    14:00 -2°C° 0.1 mm 3 mps 742 mmHg 88%
    15:00 -2°C° 0.1 mm 3 mps 742 mmHg 87%
    16:00 -2°C° 0.1 mm 3 mps 741 mmHg 89%
    17:00 -4°C° 0.1 mm 3 mps 741 mmHg 90%
    18:00 -4°C° 0.1 mm 3 mps 740 mmHg 92%
    19:00 -5°C° 0.1 mm 3 mps 740 mmHg 92%
    20:00 -5°C° 0.1 mm 3 mps 739 mmHg 93%
    21:00 -6°C° 0.1 mm 3 mps 739 mmHg 93%
    22:00 -6°C° 0 mm 2 mps 738 mmHg 94%
    23:00 -7°C° 0 mm 2 mps 737 mmHg 94%

    28 February, Thursday

    Time Temperature Precipitation Wind Pressure Humidity
    00:00 -9°C° 0 mm 2 mps 737 mmHg 95%
    01:00 -8°C° 0 mm 2 mps 736 mmHg 95%
    02:00 -8°C° 0 mm 2 mps 736 mmHg 95%
    03:00 -7°C° 0 mm 1 mps 735 mmHg 95%
    04:00 -7°C° 0.1 mm 2 mps 734 mmHg 96%
    05:00 -7°C° 0.1 mm 2 mps 734 mmHg 96%
    06:00 -7°C° 0.1 mm 2 mps 733 mmHg 96%
    07:00 -6°C° 0.1 mm 2 mps 733 mmHg 96%
    08:00 -5°C° 0.1 mm 2 mps 732 mmHg 96%
    09:00 -5°C° 0.1 mm 2 mps 732 mmHg 96%
    10:00 -4°C° 0.1 mm 2 mps 731 mmHg 96%
    11:00 -3°C° 0.1 mm 2 mps 731 mmHg 95%
    12:00 -2°C° 0.1 mm 2 mps 731 mmHg 95%
    13:00 -1°C° 0.1 mm 2 mps 730 mmHg 95%
    14:00 -1°C° 0.1 mm 2 mps 730 mmHg 96%
    15:00 -1°C° 0.1 mm 2 mps 730 mmHg 97%
    16:00 +1°C° 0.1 mm 1 mps 730 mmHg 96%
    17:00 +1°C° 0.1 mm 1 mps 729 mmHg 96%
    18:00 0°C° 0.1 mm 1 mps 729 mmHg 96%
    19:00 -1°C° 0 mm 1 mps 729 mmHg 96%
    20:00 -1°C° 0 mm 1 mps 729 mmHg 96%
    21:00 -2°C° 0 mm 1 mps 729 mmHg 96%
    22:00 -3°C° 0.1 mm 0 mps 729 mmHg 96%
    23:00 -4°C° 0.1 mm 0 mps 729 mmHg 97%
    Show more